#timestamp,LO_Frequency,Hit 
1501268415.1,286047025.3,N
1501268435.9,286047027.2,N
1501268455.7,286047028.5,N
1501268475.5,286047028.5,N
1501268495.3,286047031.1,N
1501268515.2,286047031.2,N
1501268535.0,286047029.0,N
1501268535.9,286047029.0,N
1501268555.7,286047033.1,N
1501268575.6,286047033.1,N
1501268595.4,286047029.2,N
1501268615.2,286047029.3,N
1501268635.1,286047030.4,N
1501268636.0,286047030.4,N
1501268655.8,286047031.9,N
1501268675.6,286047030.2,N
1501268695.5,286047033.0,N
1501268715.3,286047031.8,N
1501268735.1,286047036.2,N
1501268755.9,286047033.3,N
1501268775.7,286047035.8,N
1501268795.5,286047035.0,N
1501268815.3,286047034.9,N
1501268835.2,286047035.6,N
1501268855.0,286047035.9,N
1501268855.9,286047035.9,N
1501268875.7,286047033.8,N
1501268895.6,286047034.0,N
1501268915.4,286047032.2,N
1501268935.2,286047032.1,N
1501268955.1,286047035.2,N
1501268956.0,286047035.2,N
1501268975.8,286047034.1,N
1501268995.6,286047030.6,N
1501269015.5,286047034.7,N
1501269035.3,286047031.8,N
1501269055.1,286047033.4,N
1501269075.8,286047037.3,N
1501269095.7,286047033.5,N
1501269115.5,286047033.6,N
1501269135.3,286047033.9,N
1501269155.2,286047034.4,N
1501269175.9,286047034.7,N
1501269195.7,286047034.5,N
1501269215.6,286047036.1,N
1501269235.4,286047033.6,N
1501269255.2,286047035.5,N
1501269275.0,286047037.8,N
1501269276.0,286047037.8,N
1501269295.8,286047038.8,N
1501269315.6,286047040.9,N
1501269335.4,286047038.6,N
1501269355.3,286047039.1,N
1501269375.1,286047040.7,N
1501269395.8,286047040.9,N
1501269415.7,286047040.4,N
1501269435.5,286047041.2,N
1501269455.3,286047039.6,N
1501269475.2,286047039.3,N
1501269495.9,286047040.5,N
1501269515.7,286047041.1,N
1501269535.5,286047038.8,N
1501269555.4,286047039.8,N
1501269575.2,286047041.1,N
1501269595.0,286047042.4,N
1501269595.9,286047042.4,N
1501269615.8,286047042.4,N
1501269635.6,286047040.2,N
1501269655.4,286047044.3,N
1501269675.3,286047041.1,N
1501269695.1,286047038.5,N
1501269696.0,286047038.5,N
1501269715.8,286047040.7,N
1501269735.7,286047042.4,N
1501269755.5,286047045.9,N
1501269775.3,286047045.0,N
1501269795.2,286047047.1,N
1501269815.9,286047045.9,N
1501269835.7,286047043.0,N
1501269855.5,286047046.0,N
1501269875.4,286047045.5,N
1501269895.2,286047043.2,N
1501269915.0,286047043.1,N
1501269915.9,286047043.1,N
1501269935.8,286047041.6,N
1501269955.6,286047040.0,N
1501269975.4,286047041.5,N
1501269995.3,286047042.7,N
1501270015.1,286047040.5,N
1501270016.0,286047040.5,N
1501270035.8,286047042.2,N
1501270055.7,286047043.3,N
1501270075.5,286047043.0,N
1501270095.3,286047044.1,N
1501270115.1,286047045.8,N
1501270135.9,286047045.1,N
1501270155.7,286047045.5,N
1501270175.5,286047046.3,N
1501270195.4,286047045.0,N
1501270215.2,286047044.5,N
1501270235.0,286047044.7,N
1501270235.9,286047044.7,N
1501270255.8,286047046.3,N
1501270275.6,286047047.8,N
1501270295.4,286047051.9,N
1501270315.3,286047049.8,N
1501270335.1,286047052.1,N
1501270336.0,286047052.1,N
1501270355.8,286047048.7,N
1501270375.7,286047044.9,N
1501270395.5,286047047.1,N
1501270415.3,286047047.0,N
1501270435.1,286047046.6,N
1501270455.9,286047048.4,N
1501270475.7,286047048.3,N
1501270495.5,286047046.5,N
1501270515.4,286047046.1,N
1501270535.2,286047046.3,N
1501270555.0,286047048.5,N
1501270555.9,286047048.5,N
1501270575.8,286047049.2,N
1501270595.6,286047047.1,N
1501270615.4,286047045.4,N
1501270635.3,286047047.6,N
1501270655.1,286047046.1,N
1501270656.0,286047046.1,N
1501270675.8,286047046.1,N
1501270695.7,286047048.0,N
1501270715.5,286047049.8,N
1501270735.3,286047050.0,N
1501270755.6,286047049.7,N
1501270775.4,286047049.7,N
1501270795.2,286047049.8,N
1501270815.1,286047049.3,N
1501270816.0,286047049.3,N
1501270835.8,286047053.3,N
1501270855.6,286047051.0,N
1501270875.4,286047052.3,N
1501270895.3,286047051.6,N
1501270915.1,286047051.1,N
1501270935.8,286047049.4,N
1501270955.7,286047050.7,N
1501270975.5,286047049.5,N
1501270995.3,286047050.9,N
1501271015.2,286047051.1,N
1501271035.9,286047053.7,N
1501271055.7,286047052.6,N
1501271075.6,286047055.0,N
1501271095.4,286047055.2,N
1501271115.2,286047052.7,N
1501271135.0,286047055.3,N
1501271135.9,286047055.3,N
1501271155.8,286047052.6,N
1501271175.6,286047053.9,N
1501271195.4,286047055.0,N
1501271215.3,286047054.7,N
1501271235.1,286047056.3,N
1501271255.8,286047054.8,N
1501271275.7,286047056.2,N
1501271295.5,286047056.0,N
1501271315.3,286047056.9,N
1501271335.2,286047058.6,N
1501271355.9,286047056.9,N
1501271375.7,286047054.7,N
1501271395.5,286047054.1,N
1501271415.4,286047058.4,N
1501271435.2,286047057.3,N
1501271455.0,286047061.7,N
1501271455.9,286047061.7,N
1501271475.8,286047061.4,N
1501271495.6,286047060.8,N
1501271515.4,286047061.2,N
1501271535.3,286047062.7,N
1501271555.1,286047063.0,N
1501271556.0,286047063.0,N
1501271575.8,286047063.1,N
1501271595.7,286047064.9,Y
1501271615.5,286047046.4,N
1501271635.3,286047045.0,N
1501271655.2,286047046.9,N
1501271675.9,286047045.8,N
1501271695.7,286047045.9,N
1501271715.5,286047042.9,N
1501271735.4,286047043.6,N
1501271755.2,286047045.9,N
1501271775.0,286047045.2,N
1501271775.9,286047045.2,N
1501271795.8,286047049.1,N
1501271815.6,286047045.8,N
1501271835.4,286047044.9,N
1501271855.3,286047044.9,N
1501271875.1,286047045.2,N
1501271876.0,286047045.2,N
1501271895.8,286047045.2,N
1501271915.7,286047045.3,N
1501271935.5,286047045.1,N
1501271955.3,286047048.4,N
1501271975.2,286047048.8,N
1501271995.9,286047048.8,N
